Location: Klein M�hlingen
(51.9472°N, 11.7453°E)
Time: 08:25:33
(UTC+00:00)

Cosmos 1825 - Pass Details

Date: 09 April 2020
Orbit: 502 x 509 km, 82.5° (Epoch: 01 June)

Event Time Altitude Azimuth Distance (km) Brightness Sun altitude
Rises 19:59:14 0° 355° (N) 2,632 6.5 -17.0°
Reaches altitude 10° 20:01:30 10° 4° (N) 1,740 5.3 -17.3°
Maximum altitude 20:05:04 37° 73° (ENE) 809 2.9 -17.7°
Enters shadow 20:05:29 36° 89° (E) 828 2.8 -17.8°
